Wind_Speed
112 113 115 117 117 118 117 119 122 126 124 122 118 117 116 114 112 110 107 104 104 100 97 96 95 92 92 91 91 90 88 85 84 79 76 73 68 64 63 60 60 60 60
108 109 109 111 114 114 111 110 113 115 117 118 117 112 109 106 105 103 96 95 93 90 87 85 82 80 81 81 82 83 81 80 78 72 66 61 60 59 54 49 50 50 50
105 104 104 104 104 106 108 105 104 104 105 106 104 105 103 94 91 93 85 88 88 86 83 76 74 72 73 74 74 76 75 70 68 64 61 56 56 55 50 46 44 43 43
93 92 90 90 89 88 89 92 95 88 87 88 88 89 87 84 83 78 74 80 79 81 78 74 70 69 68 69 71 69 65 63 60 59 57 54 51 48 42 40 38 37 37
80 80 76 76 77 78 76 78 79 75 72 73 73 70 70 69 67 64 61 67 68 69 70 69 67 67 67 67 66 63 61 59 59 57 52 49 41 38 35 33 31 31 32
72 73 73 76 76 73 66 65 65 65 64 66 65 62 60 54 53 54 54 58 58 57 59 60 60 61 64 62 60 58 58 55 52 48 44 36 31 28 27 27 27 27 26
70 69 70 70 67 63 57 53 52 51 48 47 46 45 44 43 42 42 43 43 44 44 48 52 57 58 56 54 49 46 43 42 40 36 29 22 20 20 21 20 21 21 22
53 48 46 45 44 45 44 40 38 37 36 35 33 31 30 29 28 27 28 30 32 37 43 44 48 48 43 39 37 34 33 32 26 17 13 12 12 12 13 16 17 18 19
23 25 27 29 30 28 30 30 27 24 20 17 16 17 18 19 19 20 21 22 25 30 33 33 32 33 33 31 29 25 20 12 9 13 15 13 10 7 9 11 11 14 17
13 14 16 17 18 20 21 18 15 12 10 9 8 7 7 7 8 8 10 12 15 17 22 25 27 27 24 19 12 9 7 16 19 16 11 8 9 5 4 1 5 9 9
7 9 11 13 14 14 13 11 9 8 7 6 7 6 5 5 4 2 3 8 13 15 15 15 16 10 9 9 11 14 18 18 16 12 11 5 9 7 4 1 3 6 4
11 13 13 13 13 14 14 15 16 14 15 14 13 12 11 10 10 9 7 6 6 4 3 5 5 7 11 14 14 16 16 21 16 10 8 10 11 9 6 4 4 5 6
11 12 13 12 12 13 16 18 19 20 20 23 24 22 24 24 22 21 20 19 18 18 17 15 12 12 13 11 11 12 15 22 18 15 11 13 16 17 18 15 12 14 15
11 12 12 15 19 23 29 34 37 42 42 42 41 40 38 34 31 28 27 26 22 19 15 11 8 5 3 4 7 10 13 21 25 25 21 20 25 26 26 27 25 25 25
14 17 22 31 42 44 44 46 44 42 40 39 38 36 33 31 28 24 21 19 16 12 8 5 2 1 6 10 13 15 16 19 26 29 30 29 30 33 34 35 36 36 35
57 56 54 51 48 47 45 42 39 39 37 35 34 32 29 25 21 19 16 13 10 9 7 7 8 10 13 16 19 22 23 25 27 29 31 32 33 33 33 33 33 32 33
54 54 52 50 47 45 44 42 40 38 36 34 32 30 27 25 23 20 17 16 16 16 15 15 17 19 21 23 24 26 28 30 32 33 35 37 37 37 38 39 40 40 40
53 51 49 46 44 42 39 38 37 34 32 31 30 28 26 24 22 20 19 20 20 22 25 27 30 33 36 38 39 39 40 41 42 43 45 45 46 48 47 46 46 44 44
49 49 48 48 46 42 39 37 36 38 36 33 29 25 23 20 19 20 21 23 24 26 30 33 36 39 41 43 46 47 45 43 42 43 43 43 43 45 46 46 46 45 46
52 53 51 50 50 46 39 39 41 44 43 42 38 31 25 23 22 23 24 26 31 34 37 38 39 39 39 40 38 39 42 43 44 44 43 42 42 42 42 42 41 41 41
53 50 48 48 47 48 49 49 50 51 50 51 53 48 40 34 31 30 29 30 34 38 43 42 42 41 39 38 38 39 38 38 38 38 37 37 36 35 34 33 33 33 32
44 46 46 46 46 46 46 50 53 53 54 54 55 58 52 49 43 36 34 36 37 45 47 46 43 38 35 34 33 33 33 33 33 33 33 32 31 29 27 27 26 26 26
48 49 49 50 49 49 49 49 49 51 52 58 57 64 62 57 51 47 44 39 39 46 48 46 41 36 33 32 31 32 31 30 29 29 26 25 23 20 18 16 15 14 14
47 48 48 49 51 53 56 58 55 51 52 53 61 62 62 67 67 59 53 49 47 49 49 45 39 35 32 32 32 31 30 27 25 24 22 20 17 14 11 8 7 7 7
47 47 46 47 50 53 53 54 56 56 55 55 59 64 69 69 73 72 63 55 53 52 51 44 38 34 33 32 32 32 30 27 24 22 20 17 14 11 8 4 2 4 7
48 49 51 51 52 52 52 54 56 57 59 62 62 65 70 75 78 78 70 62 59 56 53 44 39 35 34 33 33 31 29 26 23 20 18 14 12 8 5 2 5 8 11
Wind_Direction
276 276 276 276 275 274 275 277 279 280 280 277 276 276 275 275 274 274 273 274 273 275 276 276 277 279 280 281 282 283 283 285 285 285 287 287 286 286 282 277 271 268 267
275 276 277 278 279 278 275 274 274 275 277 278 279 278 275 275 274 274 274 275 274 274 274 276 278 279 278 279 279 280 283 284 286 289 288 287 288 288 283 277 272 268 269
279 279 279 279 278 278 279 278 276 275 275 276 276 277 279 279 276 274 274 271 272 272 273 275 278 279 278 279 280 281 283 286 287 288 288 290 289 286 279 276 272 269 268
282 281 281 279 279 277 277 278 279 280 279 279 278 276 276 276 276 273 271 266 265 266 270 273 275 277 279 279 279 283 285 285 285 286 288 288 287 284 277 272 270 268 266
283 283 282 280 278 278 281 282 285 286 284 280 277 278 277 275 271 267 265 264 259 260 263 268 273 275 277 279 281 284 283 284 283 285 288 286 286 280 272 272 271 271 265
283 282 283 284 288 290 289 288 284 281 279 278 278 276 275 271 268 264 260 257 256 257 261 265 272 276 277 281 282 281 282 280 282 285 286 286 278 266 267 268 267 269 271
283 282 281 284 286 292 292 289 286 284 281 277 275 273 271 267 262 257 253 255 255 257 262 267 271 276 280 282 281 280 278 279 283 285 279 269 259 263 262 266 268 270 268
279 281 281 288 292 294 294 295 292 287 283 279 275 272 265 257 251 246 245 245 249 256 261 270 274 278 278 279 279 278 280 281 280 268 251 233 228 239 257 262 267 266 265
284 289 294 296 303 312 319 309 306 303 295 286 275 266 259 253 247 244 245 251 256 263 267 269 269 271 274 277 278 278 274 265 224 181 183 199 222 215 238 256 280 275 276
307 298 301 319 338 345 333 325 310 296 285 278 269 257 248 238 234 241 250 254 255 258 262 265 271 275 279 273 259 242 200 167 173 180 196 205 209 196 225 295 324 311 286
356 358 13 10 5 351 344 1 5 31 46 55 67 74 85 86 74 41 288 262 258 265 277 288 284 285 254 197 166 162 168 175 177 194 187 198 204 201 184 237 293 306 322
53 42 32 21 9 6 19 29 40 49 53 56 59 60 60 64 62 62 60 48 41 59 84 96 101 152 154 148 162 172 182 186 191 219 193 236 240 228 201 184 242 243 286
29 28 26 29 26 31 41 49 53 57 62 69 73 77 79 78 79 79 82 85 91 95 94 98 117 134 149 166 182 197 217 210 219 227 240 240 239 249 264 253 283 294 285
21 20 27 41 55 59 69 74 78 80 80 78 76 75 75 77 79 82 86 87 84 86 88 97 109 119 174 232 262 268 258 243 245 246 245 259 270 271 272 275 265 267 267
50 58 68 79 82 82 80 77 75 76 76 75 75 74 74 75 77 78 77 73 71 73 75 80 87 257 263 266 267 272 272 264 262 267 267 268 270 271 275 277 278 280 281
87 86 85 83 81 77 74 72 70 68 65 64 64 63 61 61 64 61 53 48 37 26 4 334 308 294 287 281 281 279 277 274 274 275 278 280 279 279 278 275 278 278 275
80 77 75 73 72 70 65 61 60 58 55 53 52 51 49 48 44 39 30 17 3 349 335 321 312 305 300 297 294 291 289 289 288 286 285 284 282 280 279 279 277 274 270
73 70 68 66 63 60 58 54 49 44 39 34 30 24 20 16 10 3 353 342 330 323 318 313 309 307 304 302 298 295 294 292 291 290 289 288 287 287 284 280 276 270 264
72 67 64 62 59 57 54 46 39 36 35 31 26 19 12 3 353 346 339 333 326 317 310 306 303 299 296 294 292 292 294 295 295 293 291 288 283 280 278 275 272 269 266
71 68 65 64 60 56 51 46 43 39 36 34 29 22 13 3 356 352 353 355 349 339 329 324 322 320 315 311 306 300 297 297 296 292 289 286 282 281 280 279 277 274 270
66 65 60 57 57 55 52 48 44 40 38 37 35 31 23 16 11 4 356 347 342 334 329 328 325 321 316 312 308 305 304 302 300 298 295 292 289 287 284 282 277 273 270
64 62 58 56 53 49 47 45 41 39 37 34 32 29 25 23 16 0 342 332 330 330 331 331 331 327 322 318 316 314 311 309 307 304 302 299 298 294 289 284 279 273 269
61 57 53 50 46 43 39 34 33 33 32 30 27 25 24 18 12 6 359 348 340 336 336 338 337 334 330 327 325 323 321 318 315 313 310 309 307 304 299 292 281 269 259
52 49 46 42 38 35 32 30 28 24 24 21 20 17 17 14 11 6 1 355 352 348 344 343 341 338 336 335 333 331 329 328 327 325 324 323 320 319 317 304 278 253 232
44 40 36 32 29 28 26 23 22 21 18 17 15 13 11 8 7 5 2 359 355 352 349 348 345 343 341 340 339 338 337 337 336 334 333 333 332 334 331 322 239 181 174
36 32 29 24 22 18 17 16 14 15 14 12 10 7 4 5 5 3 0 358 355 354 353 351 348 346 344 343 343 343 341 343 341 340 343 344 347 351 9 73 135 149 152
Height
10607 10604 10597 10588 10588 10582 10577 10568 10554 10542 10542 10543 10548 10547 10546 10547 10550 10551 10556 10559 10558 10561 10560 10558 10556 10556 10551 10546 10542 10540 10538 10536 10530 10528 10522 10512 10506 10500 10496 10494 10492 10489 10492
10576 10571 10564 10554 10544 10539 10542 10539 10531 10522 10513 10505 10503 10507 10512 10514 10514 10515 10527 10529 10531 10533 10532 10532 10533 10531 10526 10524 10521 10517 10516 10513 10509 10506 10500 10494 10486 10480 10478 10477 10476 10476 10477
10539 10537 10533 10527 10521 10511 10499 10498 10494 10491 10485 10481 10480 10475 10472 10479 10485 10487 10500 10502 10504 10508 10508 10511 10511 10508 10505 10503 10501 10498 10497 10495 10490 10486 10480 10477 10471 10464 10462 10463 10463 10464 10464
10512 10507 10502 10493 10489 10484 10478 10467 10459 10463 10461 10456 10454 10449 10450 10455 10455 10460 10468 10470 10479 10483 10488 10491 10491 10488 10487 10484 10482 10481 10479 10475 10472 10466 10464 10460 10455 10451 10450 10451 10452 10452 10453
10483 10477 10476 10468 10463 10457 10454 10448 10440 10434 10432 10429 10426 10427 10428 10431 10431 10434 10441 10445 10452 10460 10466 10471 10471 10471 10469 10466 10464 10463 10461 10458 10453 10450 10449 10446 10443 10440 10440 10441 10442 10442 10442
10464 10459 10453 10445 10439 10434 10431 10428 10422 10416 10412 10408 10406 10405 10405 10408 10410 10414 10420 10425 10433 10442 10448 10451 10454 10453 10451 10449 10448 10445 10444 10440 10438 10438 10437 10436 10433 10433 10433 10433 10434 10434 10436
10445 10441 10438 10433 10426 10420 10414 10407 10402 10398 10394 10391 10390 10389 10390 10393 10395 10399 10404 10412 10421 10427 10432 10436 10437 10436 10436 10434 10432 10429 10428 10427 10428 10428 10427 10427 10427 10427 10427 10427 10429 10430 10432
10431 10429 10425 10422 10416 10410 10402 10394 10388 10384 10381 10379 10379 10379 10380 10382 10385 10391 10397 10402 10409 10415 10418 10422 10422 10423 10422 10421 10419 10418 10417 10418 10419 10420 10421 10422 10422 10423 10424 10425 10426 10426 10427
10421 10420 10418 10414 10408 10400 10394 10388 10382 10378 10376 10374 10374 10375 10375 10377 10381 10385 10390 10397 10402 10406 10408 10410 10411 10411 10411 10412 10410 10410 10409 10413 10414 10416 10417 10419 10421 10422 10423 10424 10424 10424 10424
10417 10416 10413 10408 10402 10399 10394 10387 10381 10378 10375 10374 10372 10372 10373 10375 10378 10383 10388 10392 10396 10399 10401 10403 10404 10403 10403 10403 10403 10404 10408 10411 10412 10414 10416 10418 10419 10420 10421 10421 10422 10422 10421
10417 10414 10410 10406 10403 10400 10395 10389 10383 10378 10375 10373 10372 10372 10373 10375 10378 10383 10387 10390 10392 10395 10397 10398 10398 10399 10399 10399 10401 10405 10408 10411 10413 10414 10415 10416 10417 10417 10417 10418 10420 10420 10419
10418 10415 10412 10409 10406 10401 10394 10388 10383 10379 10376 10375 10375 10375 10376 10379 10383 10386 10388 10390 10392 10394 10396 10396 10398 10400 10401 10401 10404 10407 10410 10410 10412 10414 10415 10416 10416 10416 10415 10415 10417 10417 10418
10420 10418 10415 10412 10408 10402 10397 10392 10388 10385 10383 10381 10381 10381 10382 10385 10387 10390 10392 10395 10397 10399 10400 10402 10404 10405 10405 10406 10408 10410 10410 10411 10411 10412 10413 10413 10413 10413 10413 10411 10412 10413 10414
10423 10420 10417 10414 10410 10406 10402 10399 10397 10395 10395 10393 10392 10393 10394 10396 10398 10401 10403 10404 10405 10406 10407 10408 10409 10409 10410 10411 10411 10411 10411 10411 10409 10408 10409 10408 10407 10408 10407 10406 10406 10406 10407
10426 10423 10421 10420 10420 10419 10415 10413 10411 10410 10409 10408 10407 10407 10408 10409 10410 10412 10412 10412 10412 10412 10413 10412 10412 10411 10410 10409 10408 10408 10408 10407 10404 10402 10402 10402 10401 10399 10398 10397 10396 10396 10396
10435 10434 10433 10433 10433 10431 10430 10429 10427 10425 10423 10422 10420 10420 10420 10419 10419 10419 10419 10418 10418 10417 10416 10415 10413 10411 10409 10407 10405 10403 10402 10400 10398 10395 10393 10391 10389 10388 10386 10386 10385 10385 10384
10447 10447 10447 10447 10447 10446 10445 10443 10441 10438 10437 10435 10433 10431 10430 10429 10428 10427 10426 10424 10422 10420 10418 10415 10412 10409 10406 10403 10400 10397 10394 10391 10389 10386 10383 10381 10378 10377 10376 10374 10373 10373 10371
10461 10461 10460 10459 10458 10456 10455 10453 10449 10447 10445 10442 10439 10437 10435 10433 10431 10430 10427 10425 10421 10418 10414 10410 10406 10402 10399 10394 10390 10387 10383 10379 10376 10372 10369 10366 10362 10359 10357 10355 10355 10355 10354
10474 10472 10470 10469 10468 10466 10463 10460 10458 10456 10452 10449 10445 10441 10438 10435 10432 10429 10426 10423 10419 10414 10409 10404 10398 10393 10388 10383 10378 10374 10369 10365 10360 10355 10351 10348 10345 10341 10338 10336 10335 10335 10336
10485 10482 10481 10480 10477 10474 10471 10469 10466 10463 10458 10453 10448 10443 10439 10435 10432 10428 10423 10419 10414 10409 10402 10396 10389 10383 10377 10371 10365 10360 10355 10349 10344 10339 10334 10331 10327 10324 10322 10320 10318 10318 10319
10493 10492 10490 10488 10486 10483 10481 10477 10472 10467 10461 10456 10451 10446 10441 10437 10433 10428 10423 10417 10411 10404 10396 10388 10379 10372 10365 10358 10351 10345 10340 10334 10328 10323 10319 10314 10311 10308 10307 10305 10304 10303 10303
10506 10502 10500 10497 10494 10490 10486 10482 10477 10472 10466 10461 10456 10451 10446 10440 10434 10428 10421 10413 10406 10396 10386 10377 10368 10360 10353 10346 10340 10334 10328 10323 10316 10310 10305 10301 10298 10296 10294 10293 10292 10291 10292
10513 10510 10507 10503 10500 10496 10492 10487 10481 10476 10470 10465 10460 10454 10448 10442 10435 10427 10417 10408 10399 10388 10377 10367 10358 10350 10343 10336 10330 10324 10318 10313 10306 10300 10296 10292 10289 10286 10284 10283 10283 10282 10283
10518 10515 10512 10508 10504 10500 10495 10490 10484 10479 10473 10468 10462 10455 10448 10440 10431 10420 10410 10400 10390 10379 10368 10358 10349 10342 10335 10329 10322 10316 10310 10304 10299 10293 10289 10286 10282 10280 10278 10277 10277 10278 10279
10523 10520 10517 10513 10509 10504 10499 10493 10488 10482 10476 10469 10461 10453 10445 10436 10426 10415 10403 10393 10382 10372 10361 10352 10343 10336 10329 10322 10316 10310 10303 10298 10293 10288 10285 10282 10279 10276 10275 10274 10274 10275 10277
10526 10524 10520 10516 10511 10506 10501 10495 10489 10482 10475 10468 10459 10451 10441 10432 10421 10410 10398 10387 10377 10366 10355 10346 10338 10331 10324 10318 10312 10305 10299 10295 10290 10285 10282 10279 10276 10274 10273 10273 10274 10275 10277